Wind_Speed
8 7 8 7 7 7 5 4 4 4 4 3 2 1 1 1 0 0 1 1 2 1 1 1 1 2 3 3 3 3 3 3 3 3 3 3 3 2 2 2 1 2 2 2
9 9 8 8 8 8 7 7 7 6 5 4 3 3 3 3 3 3 3 2 2 2 2 1 1 1 1 2 2 2 2 2 2 2 2 3 2 2 2 2 3 3 3 3
11 10 9 9 9 8 8 8 8 7 6 6 5 4 4 4 4 4 4 4 4 3 3 2 2 1 1 1 1 1 1 1 1 1 2 2 2 2 2 2 3 4 3 4
13 12 12 11 10 9 9 9 9 8 7 6 6 5 6 5 5 6 6 5 5 4 4 4 4 3 2 2 1 1 1 1 2 2 2 2 3 2 3 3 4 5 5 5
15 14 13 13 11 11 11 11 10 9 8 8 7 6 7 7 6 7 7 7 7 7 6 6 6 5 4 3 3 2 2 2 3 3 3 4 4 3 4 4 4 5 6 6
17 16 15 14 13 13 12 12 11 10 9 10 9 8 9 8 8 8 8 8 8 8 7 7 7 7 6 5 5 5 4 4 4 4 5 5 5 5 5 5 6 6 6 6
19 18 17 15 14 15 14 13 12 11 12 12 11 11 10 10 9 9 8 8 8 9 9 8 8 8 8 7 7 7 6 6 6 6 6 7 7 7 7 7 7 7 7 7
20 19 19 17 16 16 16 15 14 13 13 13 13 12 12 11 10 9 9 9 9 9 9 9 9 9 10 9 9 9 8 8 8 7 8 8 8 8 8 8 8 8 8 9
20 20 20 19 18 18 17 17 16 16 16 14 14 14 13 12 11 11 11 10 10 9 10 10 10 10 11 11 10 10 10 10 9 9 9 10 10 10 10 10 10 10 10 10
22 22 22 21 20 20 19 18 18 17 16 16 15 14 13 13 12 12 12 12 12 11 11 11 11 12 12 12 12 12 12 12 12 12 11 11 12 12 12 12 11 11 11 11
23 22 22 23 22 21 20 20 20 19 18 17 16 15 15 14 14 13 13 13 13 12 12 12 12 13 13 13 13 13 13 14 13 13 13 13 14 14 13 13 13 13 12 12
24 24 23 23 23 23 22 22 21 21 21 19 17 17 17 15 15 15 15 15 15 15 14 14 14 15 15 15 15 15 14 15 15 15 15 15 15 14 14 14 14 14 14 14
25 25 24 24 24 23 24 23 23 22 22 21 19 19 19 17 16 15 16 16 17 17 17 16 16 16 17 16 16 16 16 16 16 16 16 17 17 16 16 17 17 17 16 16
26 26 25 24 24 23 23 24 24 24 23 23 22 20 20 19 17 17 16 17 18 18 18 18 18 18 18 17 18 18 17 17 18 18 18 18 18 18 18 18 18 18 18 17
26 26 26 25 25 25 25 25 25 25 24 24 23 22 21 21 20 18 18 18 18 18 19 19 20 20 20 19 19 19 19 19 20 20 19 19 19 19 18 18 19 19 19 19
27 27 27 26 26 26 27 27 26 26 25 25 24 23 23 22 21 20 20 20 20 20 20 20 21 21 21 21 20 20 21 21 21 21 20 20 19 19 20 20 20 20 21 21
28 27 27 26 26 27 29 28 28 27 27 26 26 25 24 24 23 21 21 21 20 20 21 21 21 22 22 22 22 23 23 23 22 22 21 21 20 21 21 22 22 22 22 22
27 27 26 25 27 29 29 29 28 28 28 28 28 27 26 25 23 23 22 22 22 22 22 22 23 23 23 23 24 23 24 24 23 22 22 22 22 23 22 22 23 23 24 24
26 25 25 25 26 27 29 29 29 28 28 28 28 28 27 26 25 24 24 24 24 23 24 25 25 25 25 25 25 24 24 24 23 23 23 24 24 25 24 24 24 25 25 26
26 25 25 26 25 25 28 28 27 27 28 27 27 27 27 26 25 25 25 25 25 24 25 26 26 27 27 28 27 27 26 26 25 25 25 25 26 25 25 25 26 26 26 27
26 26 26 26 26 26 27 26 26 27 28 27 27 27 27 27 27 27 27 27 26 25 25 26 27 28 29 29 28 28 28 27 27 27 26 27 27 26 26 27 27 27 27 27
25 25 26 26 26 27 26 26 27 27 27 27 27 27 28 28 28 27 27 27 27 27 27 28 28 29 29 29 30 29 29 29 28 28 28 28 28 27 28 28 28 29 29 29
25 25 26 26 26 26 26 27 27 27 27 27 27 28 28 28 28 28 27 27 27 27 27 28 28 28 29 29 29 29 29 29 29 29 29 29 28 28 29 29 29 30 30 30
25 24 25 25 25 25 25 26 27 27 27 27 27 28 28 28 28 28 27 26 26 26 27 28 28 29 29 29 30 30 30 29 29 29 29 29 29 29 30 30 30 30 30 30
24 24 25 26 26 25 26 26 26 26 27 27 27 28 28 28 28 28 28 27 26 27 28 28 29 29 29 30 30 30 30 30 29 30 29 29 29 29 29 29 30 30 30 30
24 24 26 27 27 27 26 25 26 26 27 27 27 27 27 28 28 28 28 27 27 28 28 29 29 29 29 29 29 30 31 31 31 31 30 29 29 30 30 30 29 29 30 31
Wind_Direction
221 220 225 225 223 221 226 246 260 272 289 298 303 287 264 278 298 4 0 352 344 359 52 59 61 94 87 84 79 74 76 73 67 66 59 54 48 62 51 38 11 345 338 342
220 223 228 226 226 228 232 242 258 263 271 280 284 286 271 263 262 270 291 298 288 277 282 238 181 143 104 86 79 71 66 60 62 61 40 34 39 32 20 20 2 352 341 343
224 231 233 230 229 232 238 244 255 261 264 273 282 288 272 268 265 271 285 289 282 278 270 253 229 203 177 141 79 61 43 17 19 6 349 353 14 358 341 353 354 345 336 341
228 230 234 232 232 234 243 245 253 259 260 272 276 279 274 263 267 272 274 274 277 271 259 247 238 226 209 213 236 322 344 339 335 327 324 326 331 333 336 333 333 335 329 330
232 233 234 235 236 237 241 248 252 258 265 267 274 268 274 268 269 269 268 266 266 265 257 249 242 236 230 234 259 282 293 303 311 311 310 316 317 308 326 333 326 332 336 337
233 233 235 237 241 241 243 252 257 260 265 268 271 269 270 273 270 269 267 263 261 257 254 250 247 243 240 243 258 271 283 298 299 297 299 305 308 309 316 322 328 329 333 334
237 238 239 241 243 243 244 249 258 263 264 269 272 267 267 270 268 267 263 260 255 252 252 252 249 247 247 249 258 270 279 288 294 294 296 296 299 303 308 312 316 316 319 324
239 240 242 242 243 246 246 246 250 256 265 270 272 269 271 272 269 264 260 259 256 254 251 253 254 251 250 253 261 269 271 276 285 289 295 296 294 295 298 302 306 304 307 310
239 240 243 243 243 245 246 247 249 255 262 265 270 273 271 273 269 265 260 256 254 254 253 257 256 255 257 257 260 264 265 268 275 280 287 293 293 292 292 293 296 297 299 304
240 242 243 243 243 245 247 249 252 256 258 261 267 273 274 272 269 263 260 257 256 256 256 255 255 255 259 260 262 265 268 267 270 275 280 288 289 290 287 284 285 290 294 298
240 243 245 246 245 246 248 247 248 253 254 258 264 269 269 268 266 261 257 255 257 258 256 252 253 256 257 260 262 266 269 271 272 275 279 283 287 286 283 280 280 286 288 292
241 243 246 248 249 247 246 247 247 250 254 257 261 266 267 265 263 261 258 256 257 258 256 254 254 257 258 259 263 268 270 272 275 276 278 280 284 285 281 283 283 282 284 290
243 245 250 250 251 249 247 246 247 249 253 256 258 264 266 266 261 259 256 255 255 258 255 254 255 258 259 261 264 269 272 274 275 276 277 279 281 282 281 282 282 283 285 288
244 246 248 248 250 250 249 250 250 250 252 256 258 259 263 264 261 258 257 254 253 253 253 255 256 258 259 264 266 268 272 275 277 277 278 279 280 280 280 280 282 285 287 287
243 245 247 247 248 249 248 249 250 251 252 255 259 259 258 261 261 259 257 256 254 253 254 255 257 259 262 264 266 270 273 275 276 278 280 280 279 280 281 282 284 286 286 287
242 244 246 248 248 248 248 248 249 251 252 255 258 258 259 262 262 260 258 256 255 256 257 257 256 260 264 266 267 271 273 276 275 277 279 280 280 280 281 282 285 287 287 287
243 245 246 248 249 249 248 250 248 249 250 254 257 258 260 263 262 259 255 254 255 256 256 257 258 261 262 265 267 271 274 277 276 275 278 279 280 281 281 282 283 285 287 288
245 246 248 249 251 249 250 250 249 250 252 253 256 258 259 260 260 257 254 253 254 255 255 256 257 258 261 263 265 269 272 275 275 275 277 279 279 281 281 282 283 283 283 285
245 245 245 248 251 252 251 250 250 252 254 255 255 256 257 257 258 257 255 254 254 255 255 255 256 257 259 262 265 269 273 274 275 275 277 279 280 282 281 282 283 283 283 283
246 246 247 248 249 252 252 252 251 253 256 254 254 255 256 256 257 257 258 257 255 256 256 257 258 258 260 261 263 267 272 276 277 276 277 279 281 282 282 283 284 283 283 284
245 246 248 249 250 251 251 252 252 253 255 255 255 254 254 253 255 257 258 257 256 256 257 258 259 260 261 261 263 266 269 273 276 275 276 279 281 280 281 282 283 283 283 283
244 246 247 248 252 253 253 253 253 254 255 256 255 253 253 254 255 256 256 255 255 256 257 258 259 260 260 261 263 266 269 272 274 275 276 278 280 279 281 283 283 284 284 284
245 246 247 248 250 253 255 256 255 255 255 254 253 253 253 253 253 253 254 254 254 253 256 258 259 260 260 262 264 267 271 272 273 274 277 278 279 280 282 283 283 283 284 284
249 250 252 253 254 254 255 257 257 256 256 254 254 253 251 252 251 251 252 254 256 255 256 256 257 258 260 263 266 268 270 272 273 275 277 278 279 280 281 282 283 284 285 285
250 251 252 254 254 255 256 257 257 255 255 256 257 257 254 252 250 250 252 256 259 260 259 258 258 259 260 263 265 266 270 273 274 276 277 278 279 280 280 282 283 283 285 286
250 252 252 253 254 256 257 257 256 256 256 257 257 257 255 253 252 253 254 256 258 259 259 259 259 261 262 264 265 267 269 272 275 278 277 278 278 279 280 281 281 282 284 285
Height
5909 5912 5913 5914 5914 5915 5916 5916 5916 5916 5915 5914 5914 5913 5913 5912 5911 5910 5910 5909 5908 5908 5907 5906 5906 5905 5904 5904 5903 5902 5902 5901 5900 5899 5898 5897 5896 5895 5895 5894 5894 5893 5892 5891
5909 5910 5911 5912 5912 5913 5914 5914 5915 5915 5914 5914 5913 5913 5912 5911 5911 5910 5910 5909 5908 5907 5907 5906 5906 5905 5905 5904 5904 5903 5902 5901 5900 5900 5899 5898 5897 5896 5895 5894 5893 5893 5892 5891
5907 5909 5909 5910 5910 5911 5912 5913 5913 5913 5913 5913 5913 5913 5912 5911 5910 5910 5909 5908 5908 5907 5907 5906 5906 5905 5905 5904 5904 5903 5902 5902 5901 5900 5899 5898 5897 5896 5896 5895 5894 5893 5892 5891
5903 5905 5906 5907 5908 5909 5910 5911 5911 5911 5911 5912 5912 5913 5911 5910 5909 5909 5908 5908 5907 5906 5906 5906 5906 5905 5904 5904 5903 5903 5902 5901 5901 5900 5899 5898 5897 5896 5895 5894 5893 5893 5891 5890
5901 5902 5903 5904 5906 5907 5908 5908 5908 5909 5909 5910 5910 5911 5911 5909 5908 5908 5907 5906 5905 5905 5905 5905 5905 5905 5904 5904 5903 5903 5902 5901 5900 5899 5899 5898 5897 5896 5894 5893 5892 5891 5890 5889
5897 5898 5900 5901 5903 5904 5905 5905 5906 5906 5907 5908 5908 5909 5908 5907 5906 5906 5905 5904 5904 5903 5903 5903 5904 5904 5903 5903 5903 5902 5901 5901 5900 5899 5898 5897 5896 5895 5893 5892 5891 5891 5890 5889
5893 5895 5896 5898 5899 5900 5901 5903 5905 5905 5906 5906 5906 5905 5906 5904 5904 5903 5902 5902 5902 5902 5902 5902 5902 5902 5902 5902 5901 5901 5900 5900 5899 5898 5897 5896 5895 5894 5893 5891 5891 5890 5889 5888
5890 5892 5893 5894 5896 5897 5898 5900 5902 5903 5904 5904 5902 5902 5903 5901 5901 5900 5900 5900 5899 5899 5899 5900 5900 5900 5900 5900 5900 5899 5899 5898 5898 5896 5895 5895 5893 5892 5891 5890 5889 5888 5887 5886
5886 5888 5889 5890 5892 5893 5894 5895 5897 5898 5899 5899 5899 5899 5898 5898 5897 5897 5897 5896 5896 5896 5897 5897 5897 5898 5898 5898 5898 5897 5897 5896 5896 5895 5894 5893 5891 5890 5889 5888 5887 5886 5885 5884
5880 5883 5884 5885 5887 5888 5890 5891 5892 5893 5894 5895 5896 5895 5895 5894 5894 5893 5893 5893 5893 5894 5894 5894 5895 5895 5895 5895 5895 5895 5894 5894 5893 5892 5891 5890 5889 5887 5886 5885 5884 5883 5882 5881
5875 5878 5879 5880 5882 5884 5885 5886 5887 5888 5889 5891 5892 5894 5891 5890 5890 5890 5890 5890 5890 5890 5891 5891 5892 5892 5892 5892 5892 5892 5891 5891 5890 5889 5888 5887 5886 5883 5883 5882 5881 5880 5879 5878
5869 5872 5873 5875 5876 5877 5878 5880 5882 5884 5884 5885 5886 5890 5886 5886 5886 5886 5886 5886 5887 5887 5888 5888 5888 5888 5888 5888 5888 5888 5887 5887 5886 5886 5885 5884 5882 5880 5879 5879 5878 5877 5876 5874
5863 5865 5867 5869 5871 5871 5872 5874 5876 5878 5879 5879 5881 5885 5881 5881 5881 5881 5882 5882 5883 5883 5883 5884 5884 5884 5885 5884 5884 5884 5883 5883 5882 5882 5881 5879 5878 5877 5876 5875 5874 5872 5872 5870
5856 5858 5862 5864 5865 5865 5867 5868 5870 5872 5873 5873 5875 5877 5876 5876 5876 5877 5877 5877 5878 5878 5879 5879 5880 5880 5880 5880 5879 5879 5879 5878 5877 5877 5876 5875 5874 5873 5872 5870 5869 5868 5867 5866
5849 5852 5854 5856 5857 5858 5860 5862 5863 5865 5867 5868 5869 5870 5870 5870 5871 5871 5872 5872 5873 5874 5874 5874 5875 5875 5875 5875 5874 5874 5874 5873 5872 5871 5870 5869 5868 5868 5867 5866 5865 5864 5862 5861
5842 5845 5847 5848 5850 5851 5853 5855 5856 5858 5860 5861 5862 5863 5864 5864 5865 5866 5867 5867 5868 5869 5869 5869 5869 5869 5869 5869 5869 5868 5868 5867 5867 5866 5865 5864 5863 5862 5862 5861 5860 5858 5857 5856
5835 5838 5840 5842 5843 5844 5846 5848 5850 5851 5853 5854 5855 5857 5857 5858 5859 5860 5860 5861 5862 5863 5863 5864 5864 5863 5863 5863 5863 5862 5862 5861 5860 5860 5859 5858 5857 5857 5856 5855 5854 5853 5852 5850
5828 5830 5832 5835 5836 5837 5841 5840 5842 5844 5845 5847 5847 5849 5850 5851 5852 5853 5854 5855 5856 5857 5857 5857 5857 5857 5857 5857 5856 5856 5855 5854 5854 5853 5853 5852 5851 5850 5849 5848 5847 5846 5845 5844
5821 5823 5825 5828 5828 5830 5832 5833 5834 5836 5837 5839 5840 5841 5842 5843 5845 5846 5847 5848 5849 5850 5850 5851 5851 5851 5851 5850 5850 5849 5848 5848 5847 5847 5846 5846 5845 5844 5843 5842 5841 5840 5839 5838
5814 5816 5819 5820 5822 5824 5825 5825 5827 5829 5829 5831 5832 5834 5835 5836 5838 5839 5840 5841 5842 5843 5843 5843 5844 5844 5844 5844 5843 5843 5842 5842 5841 5840 5840 5839 5838 5837 5836 5835 5834 5833 5832 5831
5807 5808 5810 5812 5813 5815 5816 5818 5820 5822 5823 5823 5825 5826 5827 5828 5830 5832 5832 5833 5834 5835 5836 5836 5836 5836 5836 5836 5836 5836 5835 5835 5835 5833 5832 5832 5831 5830 5829 5828 5827 5826 5825 5823
5800 5801 5803 5805 5806 5810 5809 5810 5812 5813 5814 5815 5816 5818 5819 5820 5822 5823 5824 5825 5826 5827 5828 5828 5828 5829 5829 5829 5828 5828 5828 5828 5828 5827 5825 5824 5823 5822 5821 5821 5819 5818 5817 5816
5792 5795 5796 5798 5800 5801 5802 5802 5803 5804 5805 5806 5808 5809 5811 5812 5813 5814 5816 5817 5818 5819 5819 5820 5820 5821 5821 5821 5821 5821 5821 5820 5820 5819 5818 5817 5816 5815 5813 5812 5811 5810 5809 5808
5785 5787 5788 5790 5791 5793 5793 5794 5795 5796 5797 5798 5799 5800 5801 5803 5805 5806 5807 5808 5809 5810 5811 5811 5812 5813 5813 5813 5813 5813 5813 5813 5812 5811 5810 5809 5808 5807 5806 5804 5803 5802 5800 5799
5779 5780 5781 5782 5784 5785 5786 5786 5787 5788 5789 5790 5791 5792 5793 5794 5796 5797 5799 5800 5801 5801 5802 5803 5803 5804 5804 5805 5805 5805 5804 5804 5803 5802 5801 5801 5800 5798 5797 5796 5795 5793 5792 5790
5772 5773 5774 5774 5776 5777 5778 5778 5779 5780 5781 5782 5782 5784 5784 5786 5787 5789 5790 5791 5792 5793 5793 5794 5795 5795 5796 5796 5796 5796 5796 5795 5794 5794 5793 5792 5791 5790 5788 5787 5786 5784 5783 5781